CW1120 Weather Reports


time (UTC)temp
F
wind
direction
speed
knots
gust
knots
rain 1hr
in
rain 24hr
in
rain mn
in
humidity
%
barometer
mb
20260507214138 38 20 0.0 0.0 0.00 0.00 0.00 77 1019.5
20260507213127 39 20 0.0 0.0 0.00 0.00 0.00 76 1019.4
20260507212130 39 20 0.0 0.0 0.00 0.00 0.00 75 1019.5
20260507211148 40 20 0.0 0.0 0.00 0.00 0.00 74 1019.4
20260507210141 40 21 0.0 0.0 0.00 0.00 0.00 73 1019.3
20260507205142 41 20 0.0 0.9 0.00 0.00 0.00 72 1019.2
20260507204135 41 20 0.0 2.6 0.00 0.00 0.00 71 1019.2
20260507203128 41 20 1.7 2.6 0.00 0.00 0.00 72 1019.1
20260507202127 41 20 1.7 2.6 0.00 0.00 0.00 72 1018.9
20260507201137 41 20 2.6 3.5 0.00 0.00 0.00 70 1018.9
20260507200130 42 348 2.6 3.5 0.00 0.00 0.00 68 1018.8
20260507195130 42 347 2.6 3.5 0.00 0.00 0.00 67 1018.8
20260507194211 43 355 2.6 3.5 0.00 0.00 0.00 65 1018.7
20260507193141 44 336 1.7 2.6 0.00 0.00 0.00 63 1018.5
20260507192135 45 323 1.7 3.5 0.00 0.00 0.00 60 1018.4
20260507191135 47 320 1.7 3.5 0.00 0.00 0.00 57 1018.3
20260507190129 49 319 1.7 3.5 0.00 0.00 0.00 54 1018.2
20260507185150 50 338 2.6 3.5 0.00 0.00 0.00 50 1018.0
20260507184137 52 296 2.6 4.3 0.00 0.00 0.00 46 1017.8
20260507183130 53 306 2.6 5.2 0.00 0.00 0.00 46 1017.7
20260507182153 53 311 3.5 7.0 0.00 0.00 0.00 43 1017.7
20260507181126 54 313 3.5 7.8 0.00 0.00 0.00 43 1017.6
20260507180140 54 294 4.3 9.6 0.00 0.00 0.00 42 1017.6
20260507175132 54 278 7.0 10.4 0.00 0.00 0.00 41 1017.5
20260507174131 55 295 6.1 9.6 0.00 0.00 0.00 41 1017.6
20260507173143 56 286 6.1 8.7 0.00 0.00 0.00 40 1017.5
20260507172146 56 297 4.3 8.7 0.00 0.00 0.00 39 1017.5
20260507171142 57 305 4.3 7.8 0.00 0.00 0.00 38 1017.4
20260507170129 57 313 3.5 7.0 0.00 0.00 0.00 37 1017.3
20260507165131 57 291 2.6 9.6 0.00 0.00 0.00 38 1017.3
20260507164144 57 351 4.3 7.8 0.00 0.00 0.00 39 1017.3
20260507163206 57 321 6.1 9.6 0.00 0.00 0.00 37 1017.3
20260507162138 57 322 6.1 9.6 0.00 0.00 0.00 36 1017.2
20260507161151 57 345 3.5 8.7 0.00 0.00 0.00 37 1017.1
20260507160142 57 314 6.1 10.4 0.00 0.00 0.00 35 1017.2
20260507155135 57 304 7.0 10.4 0.00 0.00 0.00 35 1017.2
20260507154156 57 321 6.1 11.3 0.00 0.00 0.00 35 1017.1
20260507153145 57 331 7.0 12.2 0.00 0.00 0.00 35 1017.1
20260507152149 57 298 7.0 11.3 0.00 0.00 0.00 36 1017.0
20260507151144 57 289 7.0 13.0 0.00 0.00 0.00 36 1017.0
20260507150138 57 329 6.1 10.4 0.00 0.00 0.00 33 1017.0
20260507145130 57 304 7.0 12.2 0.00 0.00 0.00 35 1016.9
20260507144129 57 323 9.6 13.9 0.00 0.00 0.00 34 1016.9
20260507143140 57 286 7.0 12.2 0.00 0.00 0.00 37 1016.9
20260507142141 57 290 8.7 13.0 0.00 0.00 0.00 35 1016.8
20260507141135 57 311 8.7 13.9 0.00 0.00 0.00 35 1016.8
20260507140128 57 264 7.8 16.5 0.00 0.00 0.00 35 1016.8
20260507135145 58 292 9.6 13.0 0.00 0.00 0.00 38 1016.8
20260507134138 58 282 7.0 13.0 0.00 0.00 0.00 35 1016.8
20260507133130 57 298 8.7 13.9 0.00 0.00 0.00 37 1016.8
20260507132129 57 271 7.8 15.6 0.00 0.00 0.00 37 1016.8
20260507131209 57 301 8.7 15.6 0.00 0.00 0.00 39 1016.8
20260507130200 57 307 9.6 15.6 0.00 0.00 0.00 38 1016.8
20260507125141 58 297 8.7 13.9 0.00 0.00 0.00 36 1016.7
20260507124131 57 308 8.7 13.9 0.00 0.00 0.00 36 1016.7
20260507123138 57 311 8.7 13.0 0.00 0.00 0.00 35 1016.7
20260507122158 57 306 8.7 13.0 0.00 0.00 0.00 37 1016.6
20260507121126 58 284 7.0 13.9 0.00 0.00 0.00 38 1016.5
20260507120126 57 294 9.6 14.8 0.00 0.00 0.00 40 1016.5
20260507115138 57 289 10.4 13.9 0.00 0.00 0.00 42 1016.6
20260507114130 57 303 9.6 13.0 0.00 0.00 0.00 43 1016.5
20260507113152 56 273 8.7 13.9 0.00 0.00 0.00 43 1016.5
20260507112152 56 284 7.8 13.0 0.00 0.00 0.00 40 1016.4
20260507111138 57 297 9.6 13.0 0.00 0.00 0.00 44 1016.4
20260507110141 56 274 9.6 14.8 0.00 0.00 0.00 42 1016.5
20260507105130 56 290 9.6 13.0 0.00 0.00 0.00 47 1016.4
20260507104138 56 290 8.7 13.0 0.00 0.00 0.00 46 1016.4
20260507103145 57 261 7.8 11.3 0.00 0.00 0.00 46 1016.4
20260507102135 56 341 7.8 10.4 0.00 0.00 0.00 45 1016.3
20260507101125 56 313 7.8 12.2 0.00 0.00 0.00 43 1016.2
20260507100205 55 291 8.7 13.9 0.00 0.00 0.00 48 1016.2
20260507095136 55 282 7.8 12.2 0.00 0.00 0.00 51 1016.1
20260507094132 55 290 7.8 12.2 0.00 0.00 0.00 50 1016.0
20260507093154 55 293 7.8 12.2 0.00 0.00 0.00 54 1015.9
20260507092139 54 297 7.8 9.6 0.00 0.00 0.00 51 1015.8
20260507091139 54 254 7.8 11.3 0.00 0.00 0.00 54 1015.7
20260507090140 54 292 7.8 11.3 0.00 0.00 0.00 58 1015.8
20260507085137 54 275 7.0 11.3 0.00 0.00 0.00 62 1015.8
20260507084127 54 240 7.0 10.4 0.00 0.00 0.00 63 1015.8
20260507083203 54 254 7.8 10.4 0.00 0.00 0.00 62 1015.6
20260507082133 54 276 7.8 9.6 0.00 0.00 0.00 61 1015.5
20260507081150 53 259 6.1 8.7 0.00 0.00 0.00 60 1015.5
20260507080139 53 275 7.0 10.4 0.00 0.00 0.00 63 1015.4
20260507075130 53 241 7.0 9.6 0.00 0.00 0.00 67 1015.4
20260507074126 52 228 6.1 8.7 0.00 0.00 0.00 65 1015.2
20260507073144 52 252 6.1 8.7 0.00 0.00 0.00 68 1015.1
20260507072131 52 213 5.2 7.0 0.00 0.00 0.00 71 1015.1
20260507071206 51 234 5.2 7.8 0.00 0.00 0.00 75 1015.0
20260507070133 51 256 3.5 6.1 0.00 0.00 0.00 76 1014.9
20260507065127 51 207 5.2 7.0 0.00 0.00 0.00 77 1014.8
20260507064145 51 237 6.1 8.7 0.00 0.00 0.00 77 1014.7
20260507063136 50 244 7.0 8.7 0.00 0.00 0.00 80 1014.7
20260507062154 50 256 5.2 9.6 0.00 0.00 0.00 82 1014.6
20260507061211 49 234 7.0 9.6 0.00 0.00 0.00 85 1014.6
20260507060136 48 232 6.1 8.7 0.00 0.00 0.00 87 1014.6
20260507055149 47 230 2.6 6.1 0.00 0.00 0.00 89 1014.5
20260507054140 46 223 3.5 4.3 0.00 0.00 0.00 92 1014.4
20260507053201 44 207 1.7 2.6 0.00 0.00 0.00 93 1014.3
20260507052129 42 217 1.7 2.6 0.00 0.00 0.00 93 1014.2
20260507051140 40 355 0.0 1.7 0.00 0.00 0.00 94 1014.1
20260507050140 39 355 0.0 1.7 0.00 0.00 0.00 94 1014.1
20260507045132 38 355 0.0 0.9 0.00 0.00 0.00 95 1013.9
20260507044151 36 355 0.0 0.0 0.00 0.00 0.00 94 1013.9
20260507043142 35 355 0.0 0.0 0.00 0.00 0.00 94 1013.9
20260507042128 34 355 0.0 0.0 0.00 0.00 0.00 94 1013.7
20260507041147 34 355 0.0 0.0 0.00 0.00 0.00 93 1013.8
20260507040138 34 355 0.0 0.0 0.00 0.00 0.00 93 1013.6
20260507035130 34 355 0.0 0.0 0.00 0.00 0.00 93 1013.6
20260507034152 33 355 0.0 0.0 0.00 0.00 0.00 93 1013.5
20260507033144 33 355 0.0 0.0 0.00 0.00 0.00 93 1013.6
20260507032135 33 355 0.0 0.0 0.00 0.00 0.00 92 1013.5
20260507031126 33 355 0.0 0.0 0.00 0.00 0.00 92 1013.5
20260507030148 33 355 0.0 0.0 0.00 0.00 0.00 91 1013.4
20260507025205 33 355 0.0 0.0 0.00 0.00 0.00 91 1013.4
20260507024206 33 355 0.0 0.0 0.00 0.00 0.00 91 1013.4
20260507023136 33 355 0.0 0.0 0.00 0.00 0.00 91 1013.3
20260507022128 33 355 0.0 0.0 0.00 0.00 0.00 91 1013.4
20260507021128 33 355 0.0 0.0 0.00 0.00 0.00 90 1013.3
20260507020138 33 355 0.0 0.0 0.00 0.00 0.00 90 1013.2
20260507015155 33 355 0.0 0.0 0.00 0.00 0.00 90 1013.2
20260507014135 33 355 0.0 0.0 0.00 0.00 0.00 89 1013.1
20260507013137 33 355 0.0 0.0 0.00 0.00 0.00 89 1013.1
20260507012128 33 355 0.0 0.0 0.00 0.00 0.00 88 1013.1
20260507011125 33 355 0.0 0.0 0.00 0.00 0.00 88 1013.1
20260507010143 34 355 0.0 0.0 0.00 0.00 0.00 87 1013.0
20260507005135 34 355 0.0 0.0 0.00 0.00 0.00 87 1013.0
20260507004127 34 355 0.0 0.0 0.00 0.00 0.00 86 1013.0
20260507003146 34 355 0.0 0.0 0.00 0.00 0.00 85 1012.9
20260507002131 35 355 0.0 0.0 0.00 0.00 0.00 85 1013.0
20260507001130 35 355 0.0 0.0 0.00 0.00 0.00 84 1012.9
20260507000138 35 355 0.0 0.0 0.00 0.00 0.00 83 1012.9
20260506235130 35 355 0.0 0.0 0.00 0.00 0.00 82 1012.9
20260506234133 35 355 0.0 0.0 0.00 0.00 0.00 82 1012.8
20260506233126 36 355 0.0 0.0 0.00 0.00 0.00 81 1012.8
20260506232146 36 355 0.0 1.7 0.00 0.00 0.00 81 1012.8
20260506231132 36 355 0.0 0.0 0.00 0.00 0.00 80 1012.8
20260506230142 36 355 0.9 2.6 0.00 0.00 0.00 81 1012.7
20260506225146 36 344 1.7 2.6 0.00 0.00 0.00 80 1012.7
20260506224135 36 334 1.7 2.6 0.00 0.00 0.00 79 1012.7
20260506223149 36 342 0.0 0.0 0.00 0.00 0.00 78 1012.7
20260506222131 37 342 0.0 0.0 0.00 0.00 0.00 77 1012.5
20260506221143 37 342 0.0 0.0 0.00 0.00 0.00 77 1012.6
20260506220131 38 342 0.0 1.7 0.00 0.00 0.00 77 1012.6
20260506215153 38 336 0.9 2.6 0.00 0.00 0.00 77 1012.5